Home   Weather   Shymkent   Past weeks

Flag for Kazakhstan Past Weather in Shymkent, Kazakhstan — Yesterday and Last 2 Weeks

Now
55 °F

Clear.


Feels Like: 53 °F
Forecast: 50 / 79 °F
Wind: 10 mph from Southeast

Location: Shymkent Airport

Current Time: Apr 24, 2017 at 1:45:52 am

Latest Report: Apr 24, 2017 at 1:00 am


Visibility: 4 mi

Pressure: 30.15 "Hg (28.38 "Hg at 506m altitude)

Humidity: 72%

Dew Point: 46 °F

Location of ShymkentLocation

Past Weather in Shymkent — Graph

°F

Shymkent Temperature Yesterday

Maximum temperature yesterday: 75 °F (at 4:00 pm)
Minimum temperature yesterday: 48 °F (at 5:00 am)
Average temperature yesterday: 62 °F

High & Low Weather Summary for the Past Weeks

 TemperatureHumidityPressure
High82 °F (Apr 15, 4:30 pm)100% (Apr 12, 10:30 pm)30.42 "Hg (Apr 12, 10:30 pm)
Low41 °F (Apr 9, 5:00 am)12% (Apr 15, 1:00 pm)29.80 "Hg (Apr 15, 4:00 pm)
Average61 °F64%30.05 "Hg
* Reported Apr 9 12:00 am — Apr 24 12:30 am, Shymkent, Weather by CustomWeather, © 2017

Note: Actual official high and low records may vary slightly from our data, if they occured in-between our weather recording intervals... More about our weather records

Advertising

Shymkent Weather History for the Previous 24 Hours

Scroll right to see more
 ConditionsComfort  
Time TempWeatherWind HumidityBarometerVisibility
12:30 am
Mon, Apr 24
57 °FClear.10 mph67%30.18 "Hg4 mi
12:00 am57 °FClear.6 mph67%30.18 "Hg4 mi
11:30 pm
Sun, Apr 23
55 °FClear.3 mph72%30.18 "Hg4 mi
11:00 pm61 °FClear.3 mph59%30.18 "Hg4 mi
10:30 pm59 °FClear.6 mph63%30.18 "Hg10 mi
10:00 pm61 °FClear.3 mph59%30.18 "Hg10 mi
9:30 pm63 °FClear.3 mph56%30.18 "Hg10 mi
9:00 pm64 °FClear.3 mph52%30.18 "Hg10 mi
8:30 pm66 °FClear.1 mph46%30.18 "Hg10 mi
8:00 pm68 °FSunny.3 mph43%30.18 "Hg10 mi
7:00 pm72 °FSunny.1 mph33%30.18 "Hg10 mi
6:00 pm73 °FPassing clouds.6 mph36%30.18 "HgN/A
5:30 pm72 °FSunny.6 mph38%30.18 "Hg10 mi
5:00 pm73 °FSunny.6 mph33%30.18 "Hg10 mi
4:30 pm75 °FPassing clouds.3 mph34%30.18 "HgN/A
4:00 pm75 °FSunny.10 mph39%30.18 "Hg10 mi
3:30 pm73 °FSunny.10 mph36%30.21 "Hg10 mi
3:00 pm73 °FSunny.10 mph31%30.21 "Hg10 mi
2:30 pm73 °FSunny.10 mph33%30.21 "Hg10 mi
1:30 pm73 °FSunny.10 mph38%30.21 "Hg10 mi
1:00 pm72 °FPassing clouds.6 mph47%30.21 "HgN/A
12:30 pm72 °FSunny.8 mph47%30.21 "Hg10 mi
12:00 pm72 °FPassing clouds.8 mph38%30.21 "HgN/A
11:30 am70 °FPassing clouds.8 mph43%30.21 "HgN/A
11:00 am70 °FPassing clouds.10 mph50%30.21 "HgN/A
10:30 am70 °FSunny.8 mph53%30.21 "Hg10 mi
10:00 am66 °FPassing clouds.3 mph60%30.21 "HgN/A
9:30 am64 °FPassing clouds.3 mph60%30.21 "HgN/A
8:30 am59 °FSunny.3 mph63%30.18 "Hg10 mi
8:00 am55 °FSunny.8 mph77%30.18 "Hg10 mi
7:30 am54 °FSunny.6 mph77%30.18 "Hg10 mi
7:00 am50 °FSunny.3 mph82%30.15 "Hg10 mi
6:30 am50 °FSunny.6 mph76%30.15 "Hg10 mi
6:00 am50 °FClear.6 mph82%30.15 "Hg10 mi
5:30 am48 °FClear.6 mph82%30.15 "Hg10 mi
5:00 am48 °FClear.3 mph82%30.15 "Hg10 mi
4:30 am52 °FClear.6 mph82%30.15 "Hg10 mi
4:00 am50 °FClear.6 mph82%30.15 "Hg4 mi
3:30 am52 °FClear.6 mph82%30.15 "Hg4 mi
3:00 am50 °FClear.6 mph88%30.15 "Hg4 mi
2:30 am54 °FClear.3 mph77%30.15 "Hg4 mi
2:00 am54 °FClear.6 mph82%30.18 "Hg4 mi
1:30 am54 °FClear.6 mph82%30.18 "Hg4 mi
Weather by CustomWeather, © 2017

See weather overviewHow to use our weather pages